[[{"header":{"parameterUnit":"m.s-1","parameterCategory":1,"la1":30.2991,"la2":30.254,"lo1":-89.0895,"lo2":-89.0444,"dx":0.0017,"dy":0.0017,"nx":28,"ny":28,"refTime":"2022-11-16T09:00:00:Z","depth":0,"parameterNumber":2,"parameterNumberName":"U-component_of_WINDS"},"data":[0,0,0,0,0,0,0,0,0,0,0,0,0,0,0,0,0,0,0,0,0,0,0,0,0,0,0,0,0,0,0,0,0,0,0,0,0,0,0,0,0,0,0,0,0,0,0,0,0,0,0,0,0,0,0,0,0,0,-0.8958,-0.8958,0,-0.8994,-0.8994,-0.8995,-0.8947,-0.8946,-0.8944,-0.8942,-0.8982,-0.8985,-0.8987,0,0,0,0,0,0,0,0,0,0,0,0,0,-0.8849,-0.8851,-0.8958,-0.8958,-0.8959,-0.8994,-0.8994,-0.8995,-0.8948,-0.8945,-0.8943,-0.8941,-0.8981,-0.8984,-0.8988,0,0,0,0,0,0,0,0,0,0,0,0,0,-0.8892,-0.8852,-0.8958,-0.8939,-0.8938,-0.8994,-0.8994,-0.8995,-0.8948,-0.8945,-0.8943,-0.894,-0.898,-0.8984,-0.8988,-0.9065,0,0,-0.9,-0.9002,0,0,0,0,0,0,0,0,-0.889,-0.8896,-0.8942,-0.8941,-0.8939,-0.8963,-0.8971,-0.9018,-0.8949,-0.8944,-0.8942,-0.8939,-0.8978,-0.8982,-0.8995,-0.9066,-0.9068,-0.9001,-0.9003,-0.9005,-0.9006,0,0,0,0,0,0,0,-0.8887,-0.8894,-0.8972,-0.8942,-0.8941,-0.893,-0.8933,-0.8979,-0.8975,-0.8945,-0.8941,-0.8946,-0.8977,-0.8991,-0.8995,-0.9069,-0.9,-0.9004,-0.9007,-0.9008,-0.9203,-0.9205,0,0,0,0,0,0,-0.8886,-0.8892,-0.8971,-0.8973,-0.8907,-0.8934,-0.8937,-0.8958,-0.8975,-0.8975,-0.8948,-0.8944,-0.8985,-0.8991,-0.8997,-0.9086,-0.9005,-0.9008,-0.9011,-0.92,-0.9203,-0.9206,0,0,0,0,0,0,-0.8884,-0.8893,-0.897,-0.8932,-0.8941,-0.8938,-0.8962,-0.896,-0.8974,-0.8977,-0.8977,-0.8963,-0.8984,-0.8991,-0.9047,-0.9087,-0.901,-0.9014,-0.9197,-0.9201,-0.9205,-0.9267,0,0,0,0,0,0,-0.8881,-0.8893,-0.8922,-0.8933,-0.8943,-0.902,-0.8965,-0.8963,-0.8981,-0.8975,-0.8991,-0.8991,-0.8982,-0.9042,-0.9051,-0.9091,-0.9017,-0.9193,-0.9199,-0.9204,-0.9261,-0.9272,-0.9282,0,0,0,0,0,-0.8877,-0.8939,-0.8923,-0.8933,-0.8979,-0.9022,-0.9028,-0.9015,-0.8984,-0.9014,-0.9015,-0.8991,-0.9081,-0.9048,-0.9058,-0.91,-0.9191,-0.9197,-0.9203,-0.9256,-0.927,-0.9282,0,0,0,0,0,0,-0.8934,-0.894,-0.8923,-0.899,-0.9006,-0.9014,-0.9051,-0.9031,-0.9056,-0.905,-0.9034,-0.9038,-0.9098,-0.9104,-0.9068,-0.9174,-0.9131,-0.9139,-0.9167,-0.9181,-0.9191,-0.9188,-0.902,0,0,0,0,0,-0.8955,-0.8989,-0.8992,-0.9051,-0.9059,-0.9054,-0.9072,-0.9061,-0.9077,-0.9083,-0.9089,-0.9106,-0.9138,-0.9159,-0.9189,-0.9261,-0.9263,-0.9295,-0.9305,-0.9314,-0.9322,-0.9359,-0.9372,-0.9227,-0.9227,-0.9227,0,0,-0.8997,-0.9005,-0.9027,-0.9063,-0.9073,-0.9109,-0.906,-0.91,-0.9127,-0.909,-0.9143,-0.9148,-0.9165,-0.9229,-0.9258,-0.9237,-0.9362,-0.9322,-0.9329,-0.9332,-0.9367,-0.938,-0.9393,-0.9231,-0.923,-0.923,0,0,-0.9093,-0.9103,-0.9152,-0.9163,-0.9179,-0.9174,-0.9186,-0.9197,-0.9198,-0.925,-0.9223,-0.9254,-0.931,-0.9323,-0.9337,-0.9435,-0.9413,-0.9445,-0.95,-0.9537,-0.9548,-0.9558,-0.9592,-0.9605,-0.9453,-0.9453,-0.9453,0,-0.9145,-0.9197,-0.918,-0.9222,-0.9238,-0.9204,-0.9253,-0.9265,-0.9291,-0.9303,-0.9278,-0.9345,-0.9355,-0.9421,-0.9444,-0.9457,-0.947,-0.9444,-0.9548,-0.9558,-0.9567,-0.9599,-0.9612,-0.9456,-0.9456,-0.9456,-0.9455,0,-0.9259,-0.9296,-0.9334,-0.9357,-0.9377,-0.9423,-0.9412,-0.9435,-0.9421,-0.9419,-0.9472,-0.9482,-0.9512,-0.9526,-0.9514,-0.959,-0.9576,-0.955,-0.9507,-0.9585,-0.9615,-0.9627,-0.9462,-0.946,-0.9459,-0.9458,0,0,-0.9395,-0.9406,-0.942,-0.943,-0.9444,-0.9472,-0.9515,-0.9543,-0.9562,-0.958,-0.9616,-0.9662,-0.9637,-0.9653,-0.9641,-0.9673,-0.9749,-0.9642,-0.9643,-0.9662,-0.9832,-0.9852,-0.9867,-0.9734,-0.9736,-0.9738,-0.983,0,-0.9491,-0.9565,-0.9549,-0.9622,-0.9655,-0.9622,-0.9659,-0.9672,-0.9671,-0.9698,-0.9697,-0.9729,-0.9694,-0.9703,-0.9733,-0.9733,-0.9783,-0.9726,-0.9767,-0.9769,-0.9764,-0.9883,-0.9905,-0.9992,-0.9842,-0.9844,-0.9846,0,-0.9613,-0.9633,-0.9709,-0.9715,-0.9728,-0.9763,-0.9786,-0.9813,-0.9826,-0.9822,-0.9839,-0.982,-0.9863,-0.9818,-0.9876,-0.9838,-0.9853,-0.9855,-0.9858,-0.9862,-0.9813,-0.989,-1.0019,-1.0032,-0.9864,-0.9863,-0.9862,0,-0.9704,-0.975,-0.9801,-0.981,-0.9819,-0.9843,-0.9849,-0.9859,-0.9876,-0.9896,-0.9907,-0.9932,-0.9947,-0.9967,-0.9955,-0.9924,-1.0015,-0.997,-1.0014,-1.0014,-1.0035,-1.0034,-1.0169,-1.0045,-1.0045,-1.0045,-1.0044,0,-0.9812,-0.986,-0.9841,-0.9873,-0.9924,-0.9906,-0.9958,-0.9959,-0.9968,-0.9999,-0.9972,-1.0001,-0.9984,-1.0013,-1.0004,-1.0053,-1.006,-1.0058,-1.0055,-1.006,-1.0061,-1.0071,-1.0065,-1.0048,-1.0047,-1.0047,-1.0046,0,-0.9923,-0.9913,-0.9966,-0.9969,-0.9971,-1.0009,-1.0011,-1.004,-1.0035,-1.0075,-1.0083,-1.0076,-1.0107,-1.0098,-1.0132,-1.0126,-1.0188,-1.0177,-1.0183,-1.0181,-1.0225,-1.0221,-1.0372,-1.039,-1.0254,-1.0255,-1.0257,0,-0.9994,-1.0029,-1.0035,-1.0053,-1.0059,-1.0089,-1.0105,-1.0088,-1.0106,-1.0122,-1.0149,-1.0178,-1.02,-1.0251,-1.025,-1.0275,-1.0265,-1.0316,-1.0269,-1.0273,-1.0266,-1.0264,-1.0267,-1.0326,-1.0328,-1.0329,-1.033,0,-1.0119,-1.0111,-1.0136,-1.0158,-1.0178,-1.0195,-1.0209,-1.0226,-1.0209,-1.0231,-1.0262,-1.0278,-1.0312,-1.0341,-1.0363,-1.0369,-1.0347,-1.0344,-1.0356,-1.0362,-1.0364,-1.0363,-1.0209,-1.0341,-1.034,-1.0339,-1.0339,-1.0338,-1.0212,-1.0241,-1.0249,-1.0276,-1.0285,-1.0298,-1.0325,-1.0323,-1.0348,-1.0373,-1.0361,-1.0397,-1.0407,-1.0434,-1.0442,-1.047,-1.045,-1.0467,-1.0472,-1.0476,-1.0481,-1.0359,-1.0474,-1.0474,-1.0473,-1.0473,-1.0473,0,-1.0336,-1.0338,-1.0364,-1.0384,-1.0405,-1.038,-1.0394,-1.0414,-1.0445,-1.0456,-1.0477,-1.0512,-1.0539,-1.0538,-1.0563,-1.0585,-1.0575,-1.0592,-1.0591,-1.0592,-1.0498,-1.0485,-1.0599,-1.0599,-1.0599,-1.0599,-1.0599,-1.0599,-1.0403,-1.045,-1.0443,-1.0494,-1.0496,-1.053,-1.054,-1.0552,-1.056,-1.06,-1.0621,-1.062,-1.0626,-1.065,-1.0674,-1.0672,-1.0683,-1.0704,-1.0699,-1.0611,-1.0599,-1.0587,-1.0575,-1.0706,-1.0706,-1.079,-1.0791,-1.0792]},{"header":{"parameterUnit":"m.s-1","parameterCategory":1,"la1":30.2991,"la2":30.254,"lo1":-89.0895,"lo2":-89.0444,"dx":0.0017,"dy":0.0017,"nx":28,"ny":28,"refTime":"2022-11-16T09:00:00:Z","depth":0,"parameterNumber":3,"parameterNumberName":"V-component_of_WINDS"},"data":[0,0,0,0,0,0,0,0,0,0,0,0,0,0,0,0,0,0,0,0,0,0,0,0,0,0,0,0,0,0,0,0,0,0,0,0,0,0,0,0,0,0,0,0,0,0,0,0,0,0,0,0,0,0,0,0,0,0,-5.7826,-5.7827,0,-5.7936,-5.7938,-5.7939,-5.7858,-5.7854,-5.785,-5.7847,-5.7957,-5.7963,-5.7969,0,0,0,0,0,0,0,0,0,0,0,0,0,-5.754,-5.7546,-5.7826,-5.7827,-5.7829,-5.7936,-5.7938,-5.7939,-5.7858,-5.7854,-5.785,-5.7845,-5.7955,-5.7962,-5.797,0,0,0,0,0,0,0,0,0,0,0,0,0,-5.7659,-5.7547,-5.7826,-5.7801,-5.78,-5.7936,-5.7938,-5.794,-5.7859,-5.7854,-5.7848,-5.7843,-5.7952,-5.7962,-5.7971,-5.8136,0,0,-5.7999,-5.8003,0,0,0,0,0,0,0,0,-5.7652,-5.7669,-5.7804,-5.7803,-5.7802,-5.7878,-5.7877,-5.8005,-5.786,-5.7837,-5.7847,-5.7841,-5.7935,-5.7945,-5.7978,-5.8141,-5.8145,-5.8,-5.8006,-5.801,-5.8013,0,0,0,0,0,0,0,-5.7644,-5.7664,-5.787,-5.7806,-5.7805,-5.7783,-5.7794,-5.7901,-5.7914,-5.7838,-5.7833,-5.7847,-5.7933,-5.7969,-5.798,-5.8147,-5.8,-5.8008,-5.8014,-5.8018,-5.8447,-5.8452,0,0,0,0,0,0,-5.7638,-5.7658,-5.7866,-5.7873,-5.7713,-5.7793,-5.7805,-5.7859,-5.7913,-5.7916,-5.7852,-5.7843,-5.7955,-5.7969,-5.7983,-5.8177,-5.801,-5.8019,-5.8024,-5.8441,-5.8448,-5.8454,0,0,0,0,0,0,-5.7633,-5.7658,-5.7862,-5.7764,-5.7788,-5.7803,-5.7865,-5.7864,-5.7899,-5.7923,-5.7924,-5.7886,-5.7952,-5.797,-5.8098,-5.818,-5.8023,-5.8031,-5.8434,-5.8443,-5.8451,-5.8567,0,0,0,0,0,0,-5.7625,-5.7656,-5.772,-5.7766,-5.7794,-5.7976,-5.787,-5.787,-5.7916,-5.7906,-5.7955,-5.7958,-5.7949,-5.8084,-5.8107,-5.819,-5.8039,-5.8427,-5.8438,-5.8448,-5.8556,-5.8579,-5.8598,0,0,0,0,0,-5.7615,-5.7749,-5.7724,-5.775,-5.7874,-5.7981,-5.7997,-5.7984,-5.7923,-5.7986,-5.8001,-5.7957,-5.8167,-5.8098,-5.8123,-5.821,-5.8422,-5.8435,-5.8448,-5.8547,-5.8575,-5.8598,0,0,0,0,0,0,-5.7712,-5.7754,-5.7727,-5.7881,-5.7928,-5.7967,-5.8047,-5.8015,-5.808,-5.8067,-5.8048,-5.8059,-5.8193,-5.8214,-5.8136,-5.837,-5.8284,-5.8303,-5.8351,-5.8378,-5.8398,-5.839,-5.8046,0,0,0,0,0,-5.7752,-5.7836,-5.7868,-5.8,-5.8025,-5.8032,-5.8078,-5.8064,-5.8112,-5.8132,-5.8156,-5.8203,-5.8279,-5.833,-5.8402,-5.8559,-5.8567,-5.8631,-5.8652,-5.8669,-5.8685,-5.8767,-5.8794,-5.8497,-5.8497,-5.8497,0,0,-5.7834,-5.7867,-5.7922,-5.802,-5.8055,-5.8141,-5.805,-5.8145,-5.8208,-5.8146,-5.8267,-5.8287,-5.8338,-5.848,-5.8544,-5.8502,-5.8769,-5.8686,-5.8699,-5.8706,-5.8783,-5.8811,-5.8836,-5.8506,-5.8504,-5.8503,0,0,-5.8026,-5.8062,-5.8174,-5.8211,-5.8265,-5.8268,-5.8295,-5.834,-5.835,-5.8472,-5.8426,-5.85,-5.8633,-5.867,-5.8706,-5.8911,-5.8871,-5.8935,-5.9044,-5.9124,-5.9147,-5.9168,-5.9238,-5.9264,-5.8951,-5.8951,-5.8951,0,-5.8121,-5.825,-5.8235,-5.8334,-5.8377,-5.8325,-5.8437,-5.8473,-5.8548,-5.8578,-5.853,-5.8694,-5.8725,-5.8874,-5.8923,-5.8956,-5.8983,-5.8929,-5.9146,-5.9166,-5.9185,-5.9252,-5.9278,-5.8958,-5.8958,-5.8957,-5.8956,0,-5.8362,-5.8452,-5.8536,-5.861,-5.8662,-5.8768,-5.8766,-5.8821,-5.8803,-5.881,-5.8933,-5.8969,-5.9045,-5.908,-5.9063,-5.9226,-5.9197,-5.9148,-5.9061,-5.9221,-5.9283,-5.9309,-5.8969,-5.8966,-5.8964,-5.8962,0,0,-5.862,-5.8683,-5.8713,-5.8745,-5.88,-5.8868,-5.8969,-5.9045,-5.9091,-5.9144,-5.9226,-5.9339,-5.9293,-5.9334,-5.932,-5.9391,-5.9547,-5.9332,-5.9333,-5.9369,-5.9725,-5.9761,-5.9791,-5.9522,-5.9526,-5.953,-5.972,0,-5.8813,-5.8991,-5.8979,-5.9145,-5.9226,-5.9177,-5.9264,-5.9307,-5.9316,-5.9385,-5.9395,-5.9474,-5.9409,-5.9433,-5.9501,-5.9514,-5.9618,-5.95,-5.9595,-5.9599,-5.9582,-5.9824,-5.9862,-6.0039,-5.9745,-5.9749,-5.9752,0,-5.9063,-5.9124,-5.9298,-5.9338,-5.9372,-5.9451,-5.9518,-5.9585,-5.9631,-5.9633,-5.9678,-5.9652,-5.9751,-5.9664,-5.9799,-5.9719,-5.9757,-5.9769,-5.9776,-5.9782,-5.9684,-5.9834,-6.0096,-6.0122,-5.979,-5.9787,-5.9785,0,-5.923,-5.9356,-5.9475,-5.9504,-5.9555,-5.9611,-5.9635,-5.9675,-5.972,-5.9778,-5.9807,-5.9876,-5.9913,-5.9966,-5.9958,-5.9895,-6.0094,-6.0006,-6.0096,-6.0097,-6.0139,-6.0136,-6.0408,-6.0168,-6.0168,-6.0167,-6.0167,0,-5.9446,-5.9553,-5.955,-5.9624,-5.9742,-5.9727,-5.9844,-5.9861,-5.9897,-5.9971,-5.9933,-6.0003,-5.9989,-6.0059,-6.0053,-6.0164,-6.0182,-6.0184,-6.0181,-6.0187,-6.0186,-6.021,-6.0196,-6.0174,-6.0173,-6.0171,-6.017,0,-5.9652,-5.9655,-5.9781,-5.9818,-5.983,-5.9915,-5.9946,-6.0014,-6.0021,-6.0115,-6.0136,-6.0145,-6.0224,-6.0222,-6.0312,-6.0308,-6.0444,-6.0428,-6.0429,-6.0424,-6.0513,-6.0504,-6.0808,-6.0846,-6.0584,-6.0587,-6.0589,0,-5.9788,-5.987,-5.9916,-5.9963,-5.999,-6.0067,-6.0112,-6.01,-6.0149,-6.0205,-6.0266,-6.0342,-6.0402,-6.053,-6.0544,-6.0612,-6.0595,-6.0697,-6.0605,-6.0607,-6.0594,-6.0588,-6.0595,-6.0715,-6.0718,-6.072,-6.0722,0,-6.003,-6.0026,-6.0094,-6.0162,-6.0218,-6.027,-6.0319,-6.0359,-6.0351,-6.0408,-6.0489,-6.0535,-6.0626,-6.0701,-6.0766,-6.0788,-6.0753,-6.0751,-6.0775,-6.078,-6.0777,-6.0777,-6.0475,-6.0744,-6.0742,-6.074,-6.0739,-6.0738,-6.0203,-6.0272,-6.0315,-6.039,-6.0425,-6.0471,-6.0536,-6.055,-6.0617,-6.0691,-6.0679,-6.0769,-6.081,-6.0893,-6.0921,-6.099,-6.0953,-6.0989,-6.0997,-6.1006,-6.1014,-6.0768,-6.1002,-6.1001,-6.1,-6.1,-6.0999,0,-6.044,-6.0465,-6.0535,-6.0603,-6.0662,-6.0626,-6.0676,-6.0728,-6.0807,-6.0849,-6.0908,-6.0999,-6.1071,-6.109,-6.1159,-6.1209,-6.1195,-6.1228,-6.1223,-6.1228,-6.1044,-6.1015,-6.1238,-6.1238,-6.1238,-6.1238,-6.1238,-6.1238,-6.057,-6.0684,-6.0686,-6.0815,-6.0838,-6.0926,-6.0958,-6.0999,-6.1032,-6.1135,-6.1195,-6.1207,-6.1239,-6.1309,-6.1372,-6.1376,-6.1401,-6.144,-6.1437,-6.1265,-6.1241,-6.1218,-6.1191,-6.1446,-6.1447,-6.1614,-6.1616,-6.1617]}]]